Location: Del Oro Observatory
(38.3044°N, 104.8119°W)
Time: 18:04:46
(UTC-06:00)

Daily predictions for brighter satellites

Satellite Brightness Start Highest point End
(mag) Time Altitude Azimuth Time Altitude Azimuth Time Altitude Azimuth
Cosmos 1680 Rocket 3.6 20:39:00 10° SSW 20:44:14 89° WNW 20:49:28 10° NNE
CZ-3A R/B 2.0 20:41:38 10° SSW 20:47:21 31° SE 20:49:39 10° ENE
Meteor 1-19 Rocket 4.3 20:41:55 10° S 20:47:42 81° E 20:53:27 10° NNE
Aureole 1 Rocket 2.1 20:45:54 10° SSW 20:49:10 88° ESE 20:52:09 10° NNE
SAR-Lupe-4 4.2 20:46:34 10° SE 20:49:55 39° ENE 20:53:18 10° N
USA 81 4.2 20:45:16 10° S 20:50:32 82° W 20:55:52 10° N
Envisat 3.1 20:45:35 10° SSE 20:50:36 63° ENE 20:55:37 10° N
Cosmos 2082 Rocket 3.4 20:53:10 10° SSE 20:57:13 20° E 21:01:17 10° NE
YAOGAN 6 3.6 20:54:28 10° SE 20:57:32 29° ENE 21:00:37 10° NNE
Cosmos 1743 3.1 20:55:13 10° NNW 20:59:06 70° W 21:02:58 10° S
Okean 1-7 Rocket 3.8 20:55:20 10° S 20:59:39 52° E 21:04:02 10° NNE
DNEPR-1 R/B 3.8 20:55:28 10° NW 20:59:45 75° WSW 21:04:31 10° SSE
COSMOS 2406 4.2 20:55:16 10° SW 21:00:50 53° WNW 21:06:26 10° NNE
Okean 2 4.1 20:57:27 10° SSE 21:01:08 33° E 21:04:50 10° NNE
CZ-4B DEB 2.8 21:01:08 10° SSE 21:04:02 53° ENE 21:06:58 10° N
SAR-Lupe-1 4.3 21:02:38 10° SSE 21:06:08 54° ENE 21:09:40 10° N
Cosmos 1025 Rocket 3.1 21:03:00 10° S 21:07:09 55° E 21:11:20 10° NNE
SPOT 5 4.4 21:07:20 11° ESE 21:10:03 18° ENE 21:12:58 10° NNE
USA 186 3.4 21:08:34 10° SSW 21:11:26 31° W 21:14:14 10° NNW
Cosmos 405 3.0 21:08:48 10° N 21:12:21 66° E 21:15:37 11° SSE
COSMOS 2487 3.5 21:11:34 12° SSE 21:14:18 26° E 21:17:21 10° NE
Meteor 1-15 Rocket 4.4 21:10:05 10° N 21:15:33 55° ENE 21:20:32 12° SSE
Cosmos 1697 Rocket 4.4 21:11:49 10° N 21:15:44 19° NE 21:19:38 10° E
Cosmos 1666 3.0 21:12:35 10° NNW 21:16:18 64° W 21:20:00 10° S
Cosmos 2369 4.4 21:15:56 10° N 21:21:19 40° ENE 21:25:23 16° SE
Cosmos 2341 Rocket 4.5 21:16:21 10° N 21:22:26 45° ENE 21:27:24 15° SE
ISS -0.8 21:20:52 10° WNW 21:23:17 19° NNW 21:25:41 10° NNE
ERS-1 Rocket 3.2 21:21:26 15° SSE 21:25:33 56° ENE 21:30:28 10° N
OE (NEXTSAT) 4.5 21:22:37 10° WNW 21:26:11 74° NNE 21:28:29 20° ESE
Meteor 2-9 Rocket 4.4 21:22:26 10° NNW 21:27:58 77° W 21:33:38 10° S
Cosmos 1238 Rocket 4.3 21:22:20 10° S 21:29:06 79° W 21:35:31 10° N
Cosmos 1833 Rocket 3.2 21:24:47 10° S 21:29:51 36° ESE 21:34:58 10° NE
CRYOSAT 2 4.3 21:25:05 10° SSE 21:29:54 78° E 21:34:46 10° N
Cosmos 1371 Rocket 4.0 21:24:49 10° NNW 21:30:09 88° ENE 21:34:30 15° SSE
OAO 2 Rocket 3.6 21:25:43 10° W 21:30:28 49° SSW 21:33:36 20° SE
CENTAUR R/B 4.2 21:23:05 10° NW 21:30:30 40° WSW 21:38:10 10° S
Cosmos 2058 Rocket 3.9 21:29:33 10° NNE 21:33:37 34° ENE 21:35:48 22° SE
Meteor 1-29 4.2 21:33:19 10° N 21:36:31 42° WNW 21:39:43 10° SW
Cosmos 1939 Rocket 4.0 21:38:08 10° SSW 21:41:45 38° W 21:45:23 10° NNW
Cosmos 1437 Rocket 2.7 21:38:23 10° N 21:42:15 90° WNW 21:44:47 21° S
ASTEX 1 3.6 21:40:16 10° S 21:45:09 69° W 21:50:01 10° N
Cosmos 1515 3.5 21:44:16 17° S 21:47:06 81° E 21:50:56 10° N
PSLV R/B 4.0 21:45:56 10° W 21:48:48 34° SSW 21:49:21 31° S
Cosmos 2181 Rocket 4.0 21:43:11 11° S 21:49:12 68° E 21:55:26 10° NNE
H-2A R/B 4.2 21:48:48 13° E 21:50:13 15° ENE 21:52:41 10° NNE
Hubble Space Telescope 2.8 21:51:14 10° SSW 21:52:26 14° SSW 21:52:26 14° SSW
Cosmos 1626 Rocket 4.3 21:58:52 30° ESE 21:59:34 32° E 22:03:25 10° NNE
Cosmos 1980 Rocket 3.5 22:00:24 10° N 22:05:12 28° ENE 22:07:36 21° E
ARGOS 3.1 22:02:22 28° SSE 22:05:18 75° ENE 22:10:44 10° N
Tiangong 2 2.5 22:07:09 10° WNW 22:10:07 35° N 22:11:33 23° NE
Cosmos 2228 2.9 22:06:59 10° N 22:11:18 79° E 22:12:42 41° SSE
Cosmos 921 Rocket 3.3 22:07:32 10° NNW 22:11:57 65° WSW 22:13:51 32° S
Cosmos 2322 Rocket 4.4 22:13:54 10° NNE 22:16:35 13° NE 22:19:15 10° ENE
Cosmos 1766 4.4 22:14:43 10° NNE 22:18:02 28° ENE 22:18:02 28° ENE
Landsat 7 4.3 22:18:54 37° ESE 22:20:05 46° ENE 22:24:38 10° N
H-2A R/B 2.0 22:18:38 40° SE 22:20:19 64° ENE 22:25:19 10° N
MetOp-B 4.5 22:17:35 25° S 22:20:41 62° WSW 22:26:01 10° NNW
SL-8 Rocket 3.9 22:19:24 10° N 22:25:43 88° E 22:28:51 32° S
TELKOM 3 3.9 22:23:35 10° NW 22:25:40 59° NNW 22:25:40 59° NNW
Lacrosse 5 rocket 4.2 22:29:17 10° N 22:31:36 14° NNE 22:33:56 10° NE
Meteor 1-4 Rocket 2.4 22:29:03 10° N 22:32:35 87° NNW 22:32:35 87° NNW
Cosmos 2366 rocket 3.9 22:26:31 10° N 22:32:40 74° E 22:34:58 40° SSE
Terra 2.3 22:34:23 42° E 22:35:07 45° ENE 22:39:39 10° N
Cosmos 1602 Rocket 3.4 22:34:31 60° S 22:35:15 83° E 22:39:35 10° N
Cosmos 2082 Rocket 3.0 22:35:21 10° SW 22:40:52 51° WNW 22:46:22 10° NNE
Cosmos 1269 Rocket 3.9 22:41:28 46° S 22:43:03 78° ESE 22:48:22 10° NNE
SPOT 5 3.7 22:46:34 30° SW 22:47:50 37° W 22:51:53 10° NNW
Cosmos 1420 Rocket 3.9 22:42:56 10° NNW 22:48:13 89° WSW 22:49:16 59° SSE
Cosmos 1048 Rocket 3.9 22:48:23 45° SSW 22:50:00 87° WNW 22:55:12 10° NNE
DMSP B5D2-2 4.0 22:45:58 10° NNE 22:51:17 88° WNW 22:52:52 47° SSW
deb Chang Zheng 4 3.7 22:47:57 10° NNE 22:51:47 56° ENE 22:51:47 56° ENE
Meteor 2-14 Rocket 4.3 22:52:05 10° N 22:58:11 90° W 22:59:49 52° S
Cosmos 1656 4.4 22:53:16 10° NW 22:58:25 43° WSW 22:59:56 35° SW
Cosmos 1697 Rocket 2.9 22:54:37 10° NNW 23:00:09 62° WSW 23:01:23 49° SSW
Meteor 1-22 Rocket 4.2 22:55:04 10° NNW 23:00:23 70° W 23:01:39 51° SSW
Spot 4 4.4 23:00:45 43° ENE 23:00:53 43° ENE 23:05:26 10° N
CARTOSAT-1 3.4 23:01:11 86° NNE 23:01:11 86° NNE 23:05:27 10° NNW
Lacrosse 5 3.3 23:04:38 25° ENE 23:04:38 25° ENE 23:06:56 10° NE
Iridium 2 4.4 22:59:49 10° N 23:02:44 49° NNE 23:02:44 49° NNE
Cosmos 1452 Rocket 4.4 22:59:09 10° NNW 23:04:03 40° WSW 23:05:20 35° SW
IGS 5A 3.6 23:09:04 73° NW 23:09:04 73° NW 23:12:54 10° NNW
Cosmos 2360 4.1 23:03:33 10° NNW 23:09:17 76° ENE 23:10:05 64° SE
SL-16 R/B 3.2 23:05:17 10° N 23:10:22 33° ENE 23:11:25 31° E
USA 267 4.1 23:06:06 10° ENE 23:10:16 31° E 23:10:16 31° E
Orbus 7S? 4.4 23:07:38 10° NW 23:13:15 41° NNE 23:13:29 40° NE
Cosmos 1842 3.8 23:14:10 56° NNW 23:14:10 56° NNW 23:17:29 10° N
Cosmos 1833 Rocket 4.4 23:08:55 10° WSW 23:13:48 30° WNW 23:18:41 10° N
ATLAS CENTAUR R/B 3.1 23:12:24 10° N 23:14:45 21° NE 23:14:45 21° NE
Cosmos 1271 Rocket 3.4 23:12:36 10° NNW 23:15:47 54° NW 23:15:47 54° NW
SL-19 R/B 4.3 23:17:00 10° N 23:22:14 66° WNW 23:23:18 53° SW
Cosmos 1758 Rocket 4.3 23:24:51 46° NE 23:24:51 46° NE 23:28:05 10° NNE
Cosmos 1544 4.4 23:21:36 10° NNW 23:24:00 38° NNW 23:24:00 38° NNW
H-2A R/B 2.6 23:25:55 53° W 23:25:55 53° W 23:30:11 10° NNW
Cosmos 2251 Rocket 3.9 23:28:23 52° ENE 23:28:23 52° ENE 23:32:58 10° NNE
Nadezhda 3 Rocket 4.3 23:38:28 47° SW 23:40:07 62° W 23:46:25 10° N
Cosmos 2239 Rocket 4.3 23:39:48 10° N 23:46:01 89° W 23:46:32 77° S
USA 229 DEB 3.9 23:39:04 10° NW 23:46:06 60° WSW 23:47:09 55° SSW
USA 229 3.9 23:39:08 10° NW 23:46:12 61° WSW 23:47:15 55° SSW
Cosmos 1953 3.5 23:44:01 10° NNW 23:46:52 41° NW 23:46:52 41° NW
Cosmos 2360 Rocket 3.6 23:43:20 10° N 23:48:06 27° ENE 23:49:04 26° ENE
Cosmos 972 Rocket 4.1 23:43:12 10° NNW 23:47:46 68° NNE 23:47:46 68° NNE
Cosmos 1980 Rocket 2.9 23:44:04 10° NW 23:49:16 40° WSW 23:49:22 40° WSW
Cosmos 1953 Rocket 4.3 23:51:43 51° NW 23:51:43 51° NW 23:55:22 10° N
CZ-4B R/B 4.2 23:49:38 10° N 23:54:34 48° WNW 23:55:10 46° W
